Location: Unspecified
(41.5516°N, 88.1098°W)
Time: 08:40:16
(UTC-05:00)

Resurs 1-4 Rocket - Visible Passes

Search period start: 01 September 2014 00:00
Search period end: 11 September 2014 00:00
Orbit: 800 x 815 km, 98.3° (Epoch: 31 August)

Date Brightness Start Highest point End Pass type
(mag) Time Alt. Az. Time Alt. Az. Time Alt. Az.
01 Sep 2.9 04:37:16 10° NNE 04:42:24 50° E 04:47:31 10° S visible
02 Sep 3.8 04:13:15 10° NE 04:17:52 30° E 04:22:28 10° SSE visible
03 Sep 4.5 03:49:40 10° NE 03:53:15 18° E 03:56:48 10° SE visible
03 Sep 2.2 05:28:17 10° N 05:33:27 56° WNW 05:38:36 10° SSW visible
04 Sep 5.0 03:27:55 10° E 03:28:31 10° E 03:29:08 10° E visible
04 Sep 2.1 05:03:47 10° NNE 05:09:06 88° ESE 05:14:23 10° SSW visible
05 Sep 2.8 04:39:28 10° NNE 04:44:39 53° E 04:49:49 10° S visible
06 Sep 3.7 04:15:25 10° NNE 04:20:07 32° E 04:24:49 10° SSE visible
06 Sep 2.9 05:55:16 10° N 05:59:56 33° WNW 06:04:36 10° SW visible
07 Sep 4.5 03:51:46 10° NE 03:55:30 19° E 03:59:14 10° SE visible
07 Sep 2.3 05:30:32 10° N 05:35:40 53° WNW 05:40:48 10° SSW visible
08 Sep 4.9 03:29:21 10° ENE 03:30:48 11° E 03:32:14 10° ESE visible
08 Sep 2.1 05:06:00 10° NNE 05:11:19 87° WNW 05:16:38 10° SSW visible
09 Sep 2.7 04:41:40 10° NNE 04:46:54 56° E 04:52:05 10° S visible
10 Sep 3.6 04:17:35 10° NNE 04:22:22 34° E 04:27:09 10° SSE visible
10 Sep 2.9 05:57:32 10° N 06:02:09 31° WNW 06:06:45 10° SW visible
